W2JV-2 Weather Reports


Display with metric or nautical units.
time (UTC)temp
F
wind
direction
speed
MPH
gust
MPH
rain 1hr
in
rain 24hr
in
rain mn
in
humidity
%
barometer
mb
20260905224504 73 36 0.0 0.0 0.00 0.00 0.00 67 1009.9
20260905224004 74 36 0.0 0.0 0.00 0.00 0.00 66 1009.9
20260905223504 74 36 0.0 0.0 0.00 0.00 0.00 66 1009.8
20260905223004 74 36 0.0 0.0 0.00 0.00 0.00 67 1009.9
20260905222504 74 36 0.0 0.0 0.00 0.00 0.00 67 1010.0
20260905222004 74 36 0.0 0.0 0.00 0.00 0.00 67 1009.9
20260905221504 74 36 0.0 0.0 0.00 0.00 0.00 67 1009.8
20260905221004 74 36 0.0 0.0 0.00 0.00 0.00 67 1009.8
20260905220504 74 36 0.0 0.0 0.00 0.00 0.00 65 1009.7
20260905214004 75 36 0.0 0.0 0.00 0.00 0.00 65 1009.8
20260905213504 75 36 0.0 0.0 0.00 0.00 0.00 63 1009.6
20260905213004 75 36 0.0 0.0 0.00 0.00 0.00 63 1009.7
20260905212503 75 36 0.0 0.0 0.00 0.00 0.00 63 1009.6
20260905212003 75 36 0.0 0.0 0.00 0.00 0.00 63 1009.6
20260905211503 75 36 0.0 0.0 0.00 0.00 0.00 63 1009.6
20260905211003 76 36 0.0 0.0 0.00 0.00 0.00 62 1009.5
20260905210504 76 36 0.0 0.0 0.00 0.00 0.00 62 1009.5
20260905210005 76 36 0.0 0.0 0.00 0.00 0.00 62 1009.5
20260905205504 77 37 0.0 0.0 0.00 0.00 0.00 61 1009.4
20260905204504 77 42 0.0 0.0 0.00 0.00 0.00 60 1009.3
20260905204003 77 42 0.0 0.0 0.00 0.00 0.00 60 1009.3
20260905203504 78 42 0.0 0.0 0.00 0.00 0.00 58 1009.2
20260905203004 78 42 0.0 0.0 0.00 0.00 0.00 58 1009.2
20260905202504 79 42 0.0 0.0 0.00 0.00 0.00 56 1009.2
20260905202004 79 47 0.0 0.0 0.00 0.00 0.00 56 1009.1
20260905201504 79 349 0.0 3.0 0.00 0.00 0.00 53 1009.1
20260905200503 79 33 2.0 3.0 0.00 0.00 0.00 55 1009.1
20260905200003 79 43 3.0 6.0 0.00 0.00 0.00 57 1009.1
20260905195503 79 13 1.0 3.0 0.00 0.00 0.00 58 1009.1
20260905195004 79 48 0.0 2.0 0.00 0.00 0.00 57 1009.1
20260905194503 79 146 0.0 3.0 0.00 0.00 0.00 58 1009.1
20260905193503 79 356 1.0 3.0 0.00 0.00 0.00 57 1009.1
20260905193003 79 347 1.0 3.0 0.00 0.00 0.00 57 1009.2
20260905192505 79 3 2.0 3.0 0.00 0.00 0.00 57 1009.2
20260905192004 79 7 1.0 3.0 0.00 0.00 0.00 55 1009.3
20260905191504 79 357 1.0 3.0 0.00 0.00 0.00 57 1009.4
20260905191003 79 294 1.0 3.0 0.00 0.00 0.00 60 1009.3
20260905190504 79 318 1.0 3.0 0.00 0.00 0.00 58 1009.4
20260905190004 79 20 1.0 3.0 0.00 0.00 0.00 59 1009.4
20260905185505 79 17 1.0 3.0 0.00 0.00 0.00 57 1009.4
20260905185004 79 312 2.0 5.0 0.00 0.00 0.00 58 1009.4
20260905184504 78 301 0.0 3.0 0.00 0.00 0.00 59 1009.3
20260905184004 78 32 2.0 3.0 0.00 0.00 0.00 58 1009.4
20260905183503 78 32 3.0 6.0 0.00 0.00 0.00 57 1009.5
20260905183004 78 340 0.0 3.0 0.00 0.00 0.00 59 1009.5
20260905182503 78 323 1.0 3.0 0.00 0.00 0.00 58 1009.6
20260905182003 78 272 1.0 2.0 0.00 0.00 0.00 61 1009.5
20260905181503 78 227 0.0 1.0 0.00 0.00 0.00 58 1009.5
20260905181005 78 42 1.0 3.0 0.00 0.00 0.00 57 1009.6
20260905180504 78 296 1.0 3.0 0.00 0.00 0.00 60 1009.7
20260905180003 77 163 0.0 3.0 0.00 0.00 0.00 61 1009.8
20260905175503 77 332 0.0 2.0 0.00 0.00 0.00 60 1009.8
20260905175003 77 39 0.0 2.0 0.00 0.00 0.00 60 1009.8
20260905174004 77 52 1.0 3.0 0.00 0.00 0.00 63 1009.8
20260905173504 76 15 0.0 2.0 0.00 0.00 0.00 61 1009.9
20260905173003 76 247 0.0 2.0 0.00 0.00 0.00 61 1009.9
20260905172504 77 337 0.0 2.0 0.00 0.00 0.00 64 1009.9
20260905171504 76 5 0.0 0.0 0.00 0.00 0.00 63 1009.9
20260905171003 76 19 0.0 0.0 0.00 0.00 0.00 65 1010.0
20260905170505 75 27 0.0 0.0 0.00 0.00 0.00 65 1010.0
20260905170004 76 313 0.0 0.0 0.00 0.00 0.00 64 1010.0
20260905165503 76 311 0.0 0.0 0.00 0.00 0.00 65 1010.1
20260905165003 76 342 0.0 0.0 0.00 0.00 0.00 67 1010.1
20260905164503 76 342 0.0 0.0 0.00 0.00 0.00 66 1010.1
20260905163504 76 323 0.0 0.0 0.00 0.00 0.00 63 1010.1
20260905163004 77 4 0.0 0.0 0.00 0.00 0.00 64 1010.1
20260905162503 77 349 0.0 2.0 0.00 0.00 0.00 64 1009.9
20260905162003 76 8 0.0 2.0 0.00 0.00 0.00 66 1009.9
20260905161502 76 350 1.0 5.0 0.00 0.00 0.00 65 1010.0
20260905161002 76 279 0.0 3.0 0.00 0.00 0.00 65 1009.9
20260905160502 75 49 2.0 3.0 0.00 0.00 0.00 67 1010.0
20260905160003 75 11 0.0 3.0 0.00 0.00 0.00 66 1010.0
20260905155502 75 311 0.0 2.0 0.00 0.00 0.00 67 1009.9
20260905154502 75 342 1.0 2.0 0.00 0.00 0.00 67 1010.1
20260905154002 75 27 0.0 3.0 0.00 0.00 0.00 65 1010.0
20260905153501 75 29 1.0 3.0 0.00 0.00 0.00 66 1010.0
20260905153002 74 5 2.0 5.0 0.00 0.00 0.00 67 1010.0
20260905152502 74 324 1.0 2.0 0.00 0.00 0.00 68 1010.0
20260905152002 74 354 0.0 3.0 0.00 0.00 0.00 68 1010.0
20260905151502 73 290 1.0 5.0 0.00 0.00 0.00 69 1010.0
20260905151002 73 330 0.0 3.0 0.00 0.00 0.00 69 1010.0
20260905150501 73 3 0.0 3.0 0.00 0.00 0.00 68 1010.0
20260905145502 73 53 2.0 3.0 0.00 0.00 0.00 68 1009.9
20260905145002 73 3 1.0 3.0 0.00 0.00 0.00 68 1010.0
20260905144502 73 340 1.0 3.0 0.00 0.00 0.00 69 1010.1
20260905144003 73 42 1.0 3.0 0.00 0.00 0.00 68 1010.1
20260905143503 73 35 1.0 2.0 0.00 0.00 0.00 69 1010.1
20260905143003 72 318 1.0 3.0 0.00 0.00 0.00 69 1010.0
20260905142504 72 321 1.0 3.0 0.00 0.00 0.00 70 1010.0
20260905141002 71 352 1.0 3.0 0.00 0.00 0.00 70 1010.0
20260905140502 71 300 0.0 3.0 0.00 0.00 0.00 69 1009.9
20260905140002 71 354 0.0 2.0 0.00 0.00 0.00 70 1010.0
20260905135502 71 356 1.0 7.0 0.00 0.00 0.00 70 1009.9
20260905135002 71 349 1.0 3.0 0.00 0.00 0.00 70 1009.9
20260905134502 70 2 1.0 3.0 0.00 0.00 0.00 70 1009.9
20260905134002 70 354 1.0 3.0 0.00 0.00 0.00 70 1010.0
20260905133002 70 44 0.0 2.0 0.00 0.00 0.00 70 1010.1
20260905132503 70 6 1.0 3.0 0.00 0.00 0.00 71 1010.2
20260905132002 70 311 0.0 3.0 0.00 0.00 0.00 71 1010.1
20260905131502 70 343 0.0 2.0 0.00 0.00 0.00 72 1010.2
20260905131003 70 3 0.0 2.0 0.00 0.00 0.00 72 1010.2
20260905130502 69 283 1.0 2.0 0.00 0.00 0.00 72 1010.3
20260905130002 69 12 1.0 2.0 0.00 0.00 0.00 72 1010.3
20260905125502 69 37 1.0 2.0 0.00 0.00 0.00 72 1010.3
20260905125003 69 349 1.0 2.0 0.00 0.00 0.00 72 1010.3
20260905124503 69 39 1.0 3.0 0.00 0.00 0.00 72 1010.3
20260905124002 69 333 1.0 3.0 0.00 0.00 0.00 72 1010.3
20260905123503 69 343 1.0 6.0 0.00 0.00 0.00 73 1010.3
20260905123002 69 31 2.0 3.0 0.00 0.00 0.00 73 1010.3
20260905122504 68 17 1.0 3.0 0.00 0.00 0.00 73 1010.4
20260905122002 68 2 0.0 0.0 0.00 0.00 0.00 73 1010.5
20260905121002 68 17 0.0 0.0 0.00 0.00 0.00 74 1010.4
20260905120503 68 47 1.0 2.0 0.00 0.00 0.00 74 1010.3
20260905120003 68 28 1.0 2.0 0.00 0.00 0.00 74 1010.3
20260905115504 68 8 1.0 3.0 0.00 0.00 0.00 74 1010.2
20260905115002 67 19 2.0 3.0 0.00 0.00 0.00 74 1010.1
20260905114502 67 61 1.0 2.0 0.00 0.00 0.00 74 1010.1
20260905114003 67 36 0.0 0.0 0.00 0.00 0.00 74 1010.0
20260905113504 67 38 0.0 0.0 0.00 0.00 0.00 74 1009.9
20260905113004 67 30 0.0 0.0 0.00 0.00 0.00 74 1009.9
20260905112502 67 359 0.0 0.0 0.00 0.00 0.00 74 1009.8
20260905112003 67 359 0.0 0.0 0.00 0.00 0.00 74 1009.8
20260905111504 67 359 0.0 0.0 0.00 0.00 0.00 73 1009.8
20260905111003 67 359 0.0 0.0 0.00 0.00 0.00 73 1009.7
20260905105501 67 355 0.0 0.0 0.00 0.00 0.00 73 1009.7
20260905105002 67 355 0.0 0.0 0.00 0.00 0.00 73 1009.6
20260905104502 67 355 0.0 0.0 0.00 0.00 0.00 73 1009.5
20260905103502 68 355 0.0 0.0 0.00 0.00 0.00 73 1009.4
20260905103002 68 355 0.0 0.0 0.00 0.00 0.00 73 1009.4
20260905102503 68 355 0.0 0.0 0.00 0.00 0.00 73 1009.4
20260905102002 68 355 0.0 0.0 0.00 0.00 0.00 73 1009.4
20260905101502 68 355 0.0 0.0 0.00 0.00 0.00 72 1009.4
20260905101003 68 355 0.0 0.0 0.00 0.00 0.00 72 1009.3
20260905100502 68 355 0.0 0.0 0.00 0.00 0.00 72 1009.3
20260905100003 68 355 0.0 0.0 0.00 0.00 0.00 72 1009.3
20260905095502 69 28 0.0 0.0 0.00 0.00 0.00 72 1009.3
20260905095002 69 28 1.0 3.0 0.00 0.00 0.00 72 1009.2
20260905094502 69 19 0.0 0.0 0.00 0.00 0.00 72 1009.1
20260905094002 69 30 0.0 0.0 0.00 0.00 0.00 72 1009.1
20260905093503 69 11 0.0 2.0 0.00 0.00 0.00 71 1009.1
20260905093002 69 24 0.0 3.0 0.00 0.00 0.00 71 1009.1
20260905092003 69 343 0.0 0.0 0.00 0.00 0.00 71 1009.1
20260905091503 69 343 0.0 0.0 0.00 0.00 0.00 71 1009.1
20260905090503 70 357 1.0 3.0 0.00 0.00 0.00 71 1009.0
20260905090002 70 3 1.0 3.0 0.00 0.00 0.00 71 1008.9
20260905085503 70 357 1.0 3.0 0.00 0.00 0.00 70 1009.0
20260905085003 70 356 1.0 3.0 0.00 0.00 0.00 71 1009.1
20260905084503 70 357 1.0 2.0 0.00 0.00 0.00 71 1009.1
20260905084003 70 28 1.0 2.0 0.00 0.00 0.00 71 1009.0
20260905083503 70 19 1.0 3.0 0.00 0.00 0.00 70 1009.0
20260905083002 70 12 1.0 3.0 0.00 0.00 0.00 70 1008.9
20260905082002 70 41 2.0 3.0 0.00 0.00 0.00 70 1009.0
20260905081503 70 4 1.0 3.0 0.00 0.00 0.00 70 1008.9
20260905081003 70 9 0.0 0.0 0.00 0.00 0.00 71 1008.9
20260905080503 70 9 0.0 2.0 0.00 0.00 0.00 71 1009.0
20260905080004 70 31 1.0 2.0 0.00 0.00 0.00 71 1009.0
20260905075502 70 321 0.0 2.0 0.00 0.00 0.00 71 1009.0
20260905075002 70 346 1.0 3.0 0.00 0.00 0.00 70 1009.0
20260905074502 70 355 0.0 3.0 0.00 0.00 0.00 70 1009.0
20260905073502 70 3 0.0 2.0 0.00 0.00 0.00 70 1008.9
20260905073002 70 31 1.0 3.0 0.00 0.00 0.00 70 1009.0
20260905071502 71 25 1.0 3.0 0.00 0.00 0.00 70 1009.1
20260905071002 71 347 2.0 3.0 0.00 0.00 0.00 70 1009.1
20260905070503 71 359 1.0 3.0 0.00 0.00 0.00 70 1009.1
20260905070002 71 359 1.0 3.0 0.00 0.00 0.00 70 1009.2
20260905065003 71 2 0.0 3.0 0.00 0.00 0.00 71 1009.4
20260905064002 71 351 1.0 3.0 0.00 0.00 0.00 70 1009.4
20260905063504 71 29 1.0 3.0 0.00 0.00 0.00 70 1009.4
20260905062502 71 357 1.0 6.0 0.00 0.20 0.00 71 1009.4
20260905061002 70 2 2.0 3.0 0.00 0.21 0.00 71 1009.5
20260905060503 70 6 2.0 3.0 0.00 0.22 0.00 72 1009.6
20260905055503 70 355 0.0 0.0 0.00 0.34 0.00 74 1009.7
20260905055002 70 2 1.0 2.0 0.00 0.34 0.00 74 1009.6
20260905054502 71 355 0.0 0.0 0.00 0.34 0.00 74 1009.7
20260905054002 71 23 0.0 0.0 0.00 0.34 0.00 75 1009.7
20260905053502 71 23 0.0 0.0 0.00 0.34 0.00 75 1009.7
20260905053003 71 23 0.0 0.0 0.00 0.34 0.00 75 1009.8
20260905052502 71 23 0.0 0.0 0.00 0.34 0.00 75 1009.8
20260905052003 71 23 0.0 0.0 0.00 0.34 0.00 75 1009.9
20260905051503 71 23 0.0 0.0 0.00 0.34 0.00 75 1009.9
20260905051002 71 23 0.0 0.0 0.00 0.34 0.00 75 1009.9
20260905050502 71 23 0.0 0.0 0.00 0.34 0.00 75 1009.9
20260905050004 71 23 0.0 0.0 0.00 0.34 0.00 75 1010.0
20260905045502 71 23 0.0 0.0 0.00 0.34 0.00 75 1010.0
20260905045002 71 23 0.0 0.0 0.00 0.34 0.00 75 1010.1
20260905044503 71 23 0.0 0.0 0.00 0.34 0.00 75 1010.0
20260905043502 71 23 0.0 0.0 0.00 0.34 0.00 75 1010.2
20260905043002 71 23 0.0 0.0 0.00 0.34 0.00 75 1010.1
20260905042502 71 23 0.0 0.0 0.00 0.34 0.00 75 1010.1
20260905042003 71 23 0.0 0.0 0.00 0.34 0.00 75 1010.1
20260905041502 71 23 0.0 0.0 0.00 0.34 0.00 75 1010.2
20260905041003 71 23 0.0 0.0 0.00 0.34 0.00 74 1010.2
20260905040502 71 23 0.0 0.0 0.00 0.34 0.00 74 1010.3
20260905040003 71 23 0.0 0.0 0.00 0.34 0.00 74 1010.3
20260905034003 71 23 0.0 0.0 0.00 0.34 0.34 74 1010.2
20260905033502 71 23 0.0 0.0 0.00 0.34 0.34 74 1010.2
20260905033003 71 23 0.0 0.0 0.00 0.34 0.34 74 1010.2
20260905032503 71 23 0.0 0.0 0.00 0.34 0.34 74 1010.1
20260905032002 71 23 0.0 0.0 0.00 0.34 0.34 74 1010.1
20260905031502 71 101 0.0 0.0 0.00 0.34 0.34 74 1010.0
20260905031002 71 101 0.0 0.0 0.00 0.34 0.34 73 1010.0
20260905030502 71 101 0.0 0.0 0.00 0.34 0.34 73 1010.0
20260905025002 71 101 0.0 0.0 0.00 0.34 0.34 73 1009.9
20260905023503 71 101 0.0 0.0 0.00 0.34 0.34 74 1010.0
20260905023002 71 101 0.0 0.0 0.00 0.34 0.34 73 1009.9
20260905022502 71 101 0.0 0.0 0.00 0.34 0.34 73 1009.9
20260905022003 71 101 0.0 0.0 0.00 0.34 0.34 73 1010.0
20260905021503 71 101 0.0 0.0 0.00 0.34 0.34 72 1010.0
20260905021002 71 101 0.0 0.0 0.00 0.34 0.34 72 1010.0
20260905020503 71 101 0.0 0.0 0.00 0.34 0.34 72 1010.1
20260905020002 71 101 0.0 0.0 0.00 0.34 0.34 73 1010.1
20260905015003 72 101 0.0 0.0 0.00 0.34 0.34 73 1010.1
20260905014503 72 101 0.0 0.0 0.00 0.34 0.34 72 1010.0
20260905014003 72 101 0.0 0.0 0.00 0.34 0.34 72 1010.0
20260905013502 72 101 0.0 0.0 0.00 0.34 0.34 72 1010.1
20260905013002 72 101 0.0 0.0 0.00 0.34 0.34 73 1010.1
20260905012502 72 101 0.0 0.0 0.00 0.34 0.34 72 1010.1
20260905012002 73 101 0.0 0.0 0.00 0.34 0.34 73 1010.1
20260905011503 72 101 0.0 0.0 0.00 0.34 0.34 72 1010.2
20260905011003 72 101 0.0 0.0 0.00 0.34 0.34 71 1010.1
20260905010502 73 101 0.0 0.0 0.00 0.34 0.34 72 1010.2
20260905005503 73 101 0.0 1.0 0.00 0.34 0.34 71 1010.2
20260905004002 73 101 0.0 1.0 0.00 0.34 0.34 72 1010.0
20260905003503 73 101 0.0 0.0 0.00 0.34 0.34 71 1010.1
20260905003003 73 101 0.0 0.0 0.00 0.34 0.34 71 1010.0
20260905002502 73 101 0.0 0.0 0.00 0.34 0.34 71 1010.1
20260905001502 74 101 0.0 0.0 0.00 0.34 0.34 71 1010.0
20260905000502 74 101 0.0 0.0 0.00 0.34 0.34 71 1009.9
20260905000004 74 101 0.0 0.0 0.00 0.34 0.34 71 1010.0
20260904235503 74 101 0.0 0.0 0.00 0.34 0.34 71 1010.0
20260904235004 74 101 0.0 0.0 0.00 0.34 0.34 71 1009.9
20260904234503 75 101 0.0 0.0 0.00 0.34 0.34 70 1010.0
20260904234002 75 101 0.0 0.0 0.00 0.34 0.34 70 1009.9
20260904233503 75 101 0.0 0.0 0.00 0.34 0.34 70 1009.8
20260904233003 75 101 0.0 0.0 0.00 0.34 0.34 69 1009.8
20260904232504 76 101 0.0 0.0 0.00 0.34 0.34 69 1009.8
20260904232003 76 101 0.0 0.0 0.00 0.34 0.34 69 1009.6
20260904231504 76 101 0.0 0.0 0.00 0.34 0.34 69 1009.5
20260904231003 76 101 0.0 0.0 0.00 0.34 0.34 69 1009.6
20260904230002 77 100 0.0 0.0 0.00 0.34 0.34 68 1009.7
20260904225503 77 100 0.0 0.0 0.00 0.34 0.34 68 1009.6
20260904225002 77 100 0.0 0.0 0.00 0.34 0.34 68 1009.6